KPAWILLO7 Weather Reports


time (UTC)temp
C
wind
direction
speed
KPH
gust
KPH
rain 1hr
cm
rain 24hr
cm
rain mn
cm
humidity
%
barometer
mb
20260510190504 25 2 6.4 9.7 0.00 0.20 0.00 48 1013.6
20260510185503 24 1 9.7 14.5 0.00 0.20 0.00 50 1013.7
20260510185003 25 1 11.3 17.7 0.00 0.20 0.00 46 1013.7
20260510184504 25 1 12.9 19.3 0.00 0.20 0.00 46 1013.8
20260510184003 25 1 12.9 19.3 0.00 0.20 0.00 42 1013.8
20260510183503 25 1 12.9 19.3 0.00 0.20 0.00 43 1013.9
20260510183005 25 1 9.7 17.7 0.00 0.20 0.00 47 1013.7
20260510182503 25 1 6.4 8.0 0.00 0.20 0.00 50 1013.7
20260510182003 24 2 9.7 16.1 0.00 0.20 0.00 50 1013.8
20260510181503 24 351 11.3 16.1 0.00 0.20 0.00 51 1013.8
20260510181004 24 351 8.0 16.1 0.00 0.20 0.00 52 1013.8
20260510180503 25 1 9.7 14.5 0.00 0.20 0.00 49 1013.8
20260510175003 23 1 6.4 8.0 0.00 0.20 0.00 50 1013.7
20260510174504 23 2 8.0 8.0 0.00 0.20 0.00 51 1013.7
20260510173504 23 2 6.4 12.9 0.00 0.20 0.00 50 1013.8
20260510173004 23 2 8.0 11.3 0.00 0.20 0.00 52 1013.8
20260510172503 24 1 8.0 11.3 0.00 0.20 0.00 52 1013.8
20260510172004 23 2 8.0 9.7 0.00 0.20 0.00 51 1013.8
20260510171003 23 1 6.4 11.3 0.00 0.20 0.00 52 1013.8
20260510170503 23 1 6.4 8.0 0.00 0.20 0.00 51 1013.8
20260510170003 23 2 8.0 9.7 0.00 0.20 0.00 51 1013.8
20260510165504 23 1 8.0 11.3 0.00 0.20 0.00 53 1013.8
20260510165004 23 1 8.0 14.5 0.00 0.20 0.00 52 1013.8
20260510163503 22 2 6.4 11.3 0.00 0.20 0.00 56 1013.8
20260510163003 22 1 6.4 11.3 0.00 0.20 0.00 57 1013.9
20260510162504 22 1 4.8 11.3 0.00 0.20 0.00 58 1014.0
20260510161503 21 2 6.4 9.7 0.00 0.20 0.00 59 1013.9
20260510161004 21 1 6.4 6.4 0.00 0.20 0.00 61 1013.8
20260510160503 21 2 8.0 6.4 0.00 0.20 0.00 61 1013.9
20260510160003 21 1 8.0 16.1 0.00 0.20 0.00 61 1013.8
20260510155504 21 1 8.0 16.1 0.00 0.20 0.00 61 1013.8
20260510155003 21 1 6.4 11.3 0.00 0.20 0.00 62 1014.0
20260510154503 20 1 4.8 11.3 0.00 0.20 0.00 62 1014.0
20260510153504 20 1 4.8 6.4 0.00 0.20 0.00 66 1014.1
20260510153004 20 1 4.8 6.4 0.00 0.20 0.00 66 1014.1
20260510152503 20 1 3.2 6.4 0.00 0.20 0.00 67 1014.1
20260510151504 19 2 6.4 11.3 0.00 0.20 0.00 67 1014.0
20260510151004 19 1 4.8 11.3 0.00 0.20 0.00 68 1014.1
20260510150503 18 1 4.8 6.4 0.00 0.20 0.00 70 1014.2
20260510150004 18 2 6.4 14.5 0.00 0.20 0.00 73 1014.2
20260510145003 18 2 3.2 8.0 0.00 0.20 0.00 76 1014.2
20260510144503 17 1 3.2 8.0 0.00 0.20 0.00 77 1014.2
20260510144004 17 1 1.6 4.8 0.00 0.20 0.00 79 1014.2
20260510143503 17 1 1.6 4.8 0.00 0.20 0.00 79 1014.2
20260510143004 17 1 1.6 4.8 0.00 0.20 0.00 82 1014.2
20260510142504 16 1 1.6 4.8 0.00 0.20 0.00 84 1014.1
20260510142003 16 2 1.6 3.2 0.00 0.20 0.00 86 1014.1
20260510141504 16 1 1.6 3.2 0.00 0.20 0.00 88 1014.2
20260510140503 15 1 3.2 8.0 0.00 0.20 0.00 90 1014.1
20260510140003 15 1 1.6 8.0 0.00 0.20 0.00 92 1014.1
20260510135504 14 1 1.6 3.2 0.00 0.20 0.00 93 1014.0
20260510135003 13 1 1.6 3.2 0.00 0.20 0.00 93 1014.1
20260510134503 13 1 1.6 3.2 0.00 0.20 0.00 93 1014.0
20260510134003 13 2 1.6 3.2 0.00 0.20 0.00 94 1014.0
20260510133504 13 1 1.6 3.2 0.00 0.20 0.00 94 1014.0
20260510133003 13 1 0.0 3.2 0.00 0.20 0.00 94 1013.9
20260510132503 12 0 0.0 0.0 0.00 0.20 0.00 94 1013.9
20260510132003 12 1 0.0 1.6 0.00 0.20 0.00 95 1013.9
20260510131504 12 1 1.6 3.2 0.00 0.20 0.00 94 1013.9
20260510130503 12 0 0.0 0.0 0.00 0.20 0.00 95 1014.2
20260510130004 11 0 0.0 0.0 0.00 0.20 0.00 95 1014.1
20260510125503 11 0 0.0 0.0 0.00 0.20 0.00 94 1014.2
20260510125003 11 0 0.0 0.0 0.00 0.20 0.00 94 1014.1
20260510124503 11 0 0.0 0.0 0.00 0.20 0.00 95 1014.1
20260510124004 11 0 0.0 0.0 0.00 0.20 0.00 94 1013.9
20260510123503 11 0 0.0 0.0 0.00 0.20 0.00 95 1013.9
20260510123004 11 1 0.0 1.6 0.00 0.20 0.00 95 1013.8
20260510121003 11 1 4.8 8.0 0.00 0.20 0.00 95 1013.5
20260510120503 11 1 1.6 4.8 0.00 0.20 0.00 94 1013.3
20260510120003 10 1 0.0 4.8 0.00 0.20 0.00 94 1013.5
20260510115504 10 1 1.6 4.8 0.00 0.20 0.00 95 1013.3
20260510115003 10 1 1.6 4.8 0.00 0.20 0.00 94 1013.4
20260510114004 10 1 1.6 4.8 0.00 0.20 0.00 95 1013.4
20260510113504 10 1 1.6 4.8 0.00 0.20 0.00 94 1013.1
20260510113003 10 1 1.6 4.8 0.00 0.20 0.00 94 1013.1
20260510112503 10 2 1.6 4.8 0.00 0.20 0.00 94 1013.2
20260510112004 10 1 1.6 4.8 0.00 0.20 0.00 94 1013.3
20260510111503 10 1 1.6 4.8 0.00 0.20 0.00 94 1013.3
20260510111003 10 1 1.6 3.2 0.00 0.20 0.00 94 1013.2
20260510110503 10 1 1.6 1.6 0.00 0.20 0.00 94 1013.2
20260510110004 10 0 0.0 0.0 0.00 0.20 0.00 94 1013.1
20260510105503 10 1 0.0 1.6 0.00 0.20 0.00 94 1012.9
20260510104504 10 1 3.2 4.8 0.00 0.20 0.00 94 1012.6
20260510104003 10 1 1.6 4.8 0.00 0.20 0.00 94 1012.6
20260510103503 10 1 1.6 3.2 0.00 0.20 0.00 94 1012.6
20260510103004 10 1 1.6 3.2 0.00 0.20 0.00 94 1012.7
20260510102503 10 1 0.0 1.6 0.00 0.20 0.00 94 1012.6
20260510101503 10 2 1.6 4.8 0.00 0.20 0.00 94 1012.6
20260510101003 10 1 3.2 6.4 0.00 0.20 0.00 94 1012.7
20260510100504 10 1 1.6 6.4 0.00 0.20 0.00 94 1012.7
20260510100004 10 1 1.6 3.2 0.00 0.20 0.00 94 1012.4
20260510095503 10 2 1.6 3.2 0.00 0.20 0.00 94 1012.2
20260510095003 10 2 1.6 3.2 0.00 0.20 0.00 94 1012.4
20260510094003 10 1 1.6 6.4 0.00 0.20 0.00 94 1012.4
20260510093503 10 1 1.6 6.4 0.00 0.20 0.00 94 1012.3
20260510093003 10 1 0.0 4.8 0.00 0.20 0.00 94 1012.3
20260510092504 10 1 0.0 4.8 0.00 0.20 0.00 94 1012.3
20260510091003 10 1 3.2 8.0 0.00 0.20 0.00 94 1012.4
20260510090505 10 1 3.2 8.0 0.00 0.20 0.00 94 1012.3
20260510090004 10 2 3.2 8.0 0.00 0.20 0.00 94 1012.4
20260510085503 9 1 4.8 8.0 0.00 0.20 0.00 94 1012.6
20260510085003 9 2 4.8 12.9 0.00 0.20 0.00 94 1012.0
20260510084004 9 1 6.4 11.3 0.00 0.20 0.00 94 1012.5
20260510083503 8 1 3.2 11.3 0.00 0.20 0.00 94 1011.9
20260510083003 8 2 1.6 11.3 0.00 0.20 0.00 93 1012.3
20260510082505 8 0 0.0 0.0 0.00 0.20 0.00 93 1011.7
20260510082003 8 0 0.0 0.0 0.00 0.20 0.00 94 1011.8
20260510081005 8 1 0.0 3.2 0.00 0.20 0.00 94 1011.8
20260510080503 8 1 0.0 3.2 0.00 0.20 0.00 93 1011.8
20260510080003 8 0 0.0 0.0 0.00 0.20 0.00 94 1011.7
20260510075503 8 0 0.0 0.0 0.00 0.20 0.00 94 1011.5
20260510075004 9 0 0.0 0.0 0.00 0.20 0.00 93 1011.5
20260510074504 9 1 0.0 1.6 0.00 0.20 0.00 93 1011.7
20260510073504 9 1 0.0 8.0 0.00 0.20 0.00 93 1011.7
20260510073004 9 2 1.6 8.0 0.00 0.20 0.00 93 1011.6
20260510072503 9 1 1.6 3.2 0.00 0.20 0.00 93 1011.7
20260510072003 8 1 1.6 6.4 0.00 0.20 0.00 93 1011.6
20260510071504 8 1 1.6 6.4 0.00 0.20 0.00 93 1011.6
20260510071003 9 1 1.6 3.2 0.00 0.20 0.00 93 1011.6
20260510070503 9 1 1.6 3.2 0.00 0.20 0.00 93 1011.4
20260510070004 9 1 0.0 3.2 0.00 0.20 0.00 93 1011.3
20260510065003 10 0 0.0 0.0 0.00 0.20 0.00 93 1011.1
20260510064503 10 0 0.0 0.0 0.00 0.20 0.00 93 1011.1
20260510064004 9 0 0.0 0.0 0.00 0.20 0.00 93 1011.1
20260510063504 10 0 0.0 0.0 0.00 0.20 0.00 93 1011.1
20260510063003 10 0 0.0 0.0 0.00 0.20 0.00 93 1011.1
20260510062003 10 0 0.0 0.0 0.00 0.20 0.00 93 1011.1
20260510061504 10 0 0.0 0.0 0.00 0.20 0.00 93 1011.1
20260510060503 10 0 0.0 0.0 0.00 0.20 0.00 93 1011.2
20260510055504 10 0 0.0 0.0 0.00 0.20 0.00 93 1011.3
20260510055003 10 0 0.0 0.0 0.00 0.20 0.00 93 1011.3
20260510054503 10 0 0.0 0.0 0.00 0.20 0.00 93 1011.4
20260510054004 10 0 0.0 0.0 0.00 0.20 0.00 93 1011.5
20260510053504 10 0 0.0 0.0 0.00 0.20 0.00 93 1011.5
20260510053003 10 0 0.0 0.0 0.00 0.20 0.00 93 1011.5
20260510052503 10 0 0.0 0.0 0.00 0.20 0.00 93 1011.6
20260510052004 10 0 0.0 0.0 0.00 0.20 0.00 93 1011.6
20260510050004 11 0 0.0 0.0 0.00 0.20 0.00 93 1011.7
20260510045503 11 0 0.0 0.0 0.00 0.20 0.00 93 1011.8
20260510043504 10 0 0.0 0.0 0.00 0.20 0.00 93 1011.8
20260510043004 10 0 0.0 0.0 0.00 0.20 0.00 93 1011.9
20260510042503 10 0 0.0 0.0 0.00 0.20 0.00 93 1011.9
20260510042003 10 0 0.0 0.0 0.00 0.20 0.00 92 1011.9
20260510041504 11 0 0.0 0.0 0.00 0.20 0.00 92 1011.9
20260510041003 11 0 0.0 0.0 0.00 0.20 0.00 93 1012.0
20260510040503 11 0 0.0 0.0 0.00 0.20 0.00 93 1012.0
20260510040004 11 0 0.0 0.0 0.00 0.20 0.00 93 1012.0
20260510035503 11 0 0.0 0.0 0.00 0.20 0.20 92 1012.0
20260510035004 11 0 0.0 0.0 0.00 0.20 0.20 92 1011.9
20260510034503 11 0 0.0 0.0 0.00 0.20 0.20 93 1011.7
20260510033503 11 1 1.6 3.2 0.00 0.20 0.20 93 1011.6
20260510033004 11 1 1.6 3.2 0.00 0.20 0.20 93 1011.6
20260510032503 11 1 1.6 3.2 0.00 0.20 0.20 93 1011.6
20260510032003 11 1 3.2 3.2 0.00 0.20 0.20 92 1011.5
20260510031503 11 1 3.2 3.2 0.00 0.20 0.20 92 1011.4
20260510031004 11 1 1.6 3.2 0.00 0.20 0.20 92 1011.5
20260510030503 11 1 1.6 3.2 0.00 0.20 0.20 92 1011.5
20260510030003 11 1 3.2 3.2 0.00 0.20 0.20 92 1011.4
20260510025504 11 1 3.2 3.2 0.00 0.20 0.20 92 1011.5
20260510025004 11 1 3.2 3.2 0.00 0.20 0.20 92 1011.4
20260510024504 11 1 3.2 3.2 0.00 0.20 0.20 92 1011.5
20260510024003 11 1 1.6 3.2 0.00 0.20 0.20 92 1011.5
20260510023504 11 1 1.6 3.2 0.00 0.20 0.20 92 1011.4
20260510022503 11 1 0.0 1.6 0.00 0.20 0.20 92 1011.4
20260510021503 11 1 0.0 1.6 0.00 0.20 0.20 92 1011.4
20260510021004 11 1 1.6 3.2 0.00 0.20 0.20 92 1011.4
20260510020503 11 1 1.6 3.2 0.00 0.20 0.20 92 1011.3
20260510020003 11 1 1.6 4.8 0.00 0.20 0.20 92 1011.3
20260510015504 11 1 1.6 4.8 0.00 0.20 0.20 92 1011.3
20260510015004 12 1 3.2 6.4 0.00 0.20 0.20 92 1011.3
20260510014503 12 1 3.2 6.4 0.00 0.20 0.20 92 1011.2
20260510013504 12 1 3.2 4.8 0.00 0.20 0.20 92 1011.3
20260510013004 12 1 3.2 4.8 0.00 0.20 0.20 92 1011.2
20260510012504 12 1 3.2 4.8 0.00 0.20 0.20 92 1011.2
20260510012003 12 1 3.2 4.8 0.00 0.20 0.20 92 1011.2
20260510011504 12 1 3.2 3.2 0.00 0.20 0.20 91 1011.3
20260510011004 12 1 3.2 3.2 0.00 0.20 0.20 91 1011.2
20260510010503 12 1 3.2 3.2 0.00 0.20 0.20 91 1011.1
20260510010003 12 1 3.2 3.2 0.00 0.20 0.20 91 1011.1
20260510004503 12 1 3.2 4.8 0.00 0.20 0.20 91 1010.9
20260510004003 12 1 3.2 3.2 0.00 0.20 0.20 91 1010.9
20260510003505 12 1 1.6 3.2 0.00 0.20 0.20 91 1010.8
20260510003004 12 0 0.0 0.0 0.00 0.20 0.20 91 1011.0
20260510002003 12 1 1.6 1.6 0.00 0.20 0.20 90 1010.8
20260510001504 12 1 0.0 1.6 0.00 0.20 0.20 90 1010.8
20260510001004 12 0 0.0 0.0 0.00 0.20 0.20 90 1010.9
20260510000503 12 0 0.0 0.0 0.00 0.20 0.20 90 1010.9
20260510000003 12 0 0.0 0.0 0.00 0.20 0.20 90 1011.0
20260509235504 12 0 0.0 0.0 0.00 0.20 0.20 90 1010.9
20260509235004 12 0 0.0 0.0 0.00 0.20 0.20 90 1010.9
20260509234503 12 0 0.0 0.0 0.00 0.20 0.20 90 1010.9
20260509233504 13 0 0.0 0.0 0.00 0.20 0.20 90 1010.9
20260509233004 13 0 0.0 0.0 0.00 0.20 0.20 90 1010.8
20260509232503 13 0 0.0 0.0 0.00 0.20 0.20 90 1010.8
20260509232003 13 1 1.6 3.2 0.00 0.20 0.20 90 1010.7
20260509231504 13 1 3.2 3.2 0.00 0.20 0.20 90 1010.7
20260509231003 13 1 3.2 4.8 0.00 0.20 0.20 90 1010.7
20260509230003 13 1 1.6 4.8 0.00 0.20 0.20 91 1010.7
20260509224503 13 2 4.8 9.7 0.00 0.20 0.20 91 1010.6
20260509224003 13 2 4.8 9.7 0.00 0.20 0.20 91 1010.6
20260509223503 13 1 4.8 9.7 0.00 0.20 0.20 90 1010.7
20260509223004 13 1 4.8 6.4 0.00 0.20 0.20 90 1010.7
20260509222503 13 2 4.8 8.0 0.00 0.20 0.20 90 1010.7
20260509222004 13 1 4.8 8.0 0.00 0.20 0.20 90 1010.6
20260509221504 13 2 3.2 6.4 0.03 0.20 0.20 90 1010.7
20260509221003 13 1 3.2 4.8 0.03 0.20 0.20 90 1010.9
20260509220503 13 1 4.8 4.8 0.05 0.20 0.20 90 1010.9
20260509220004 13 2 6.4 9.7 0.13 0.20 0.20 90 1010.8
20260509215504 12 2 6.4 9.7 0.20 0.20 0.20 89 1010.8
20260509214503 13 2 4.8 6.4 0.20 0.20 0.20 89 1010.9
20260509214004 13 1 3.2 6.4 0.20 0.20 0.20 88 1011.1
20260509213503 13 2 1.6 3.2 0.20 0.20 0.20 88 1011.2
20260509213003 13 1 3.2 6.4 0.20 0.20 0.20 88 1011.3
20260509212503 13 1 3.2 6.4 0.20 0.20 0.20 88 1011.2
20260509212004 13 2 1.6 6.4 0.18 0.18 0.18 87 1011.2
20260509211503 13 1 0.0 1.6 0.18 0.18 0.18 86 1011.1
20260509211003 13 1 1.6 4.8 0.18 0.18 0.18 85 1011.0
20260509210503 13 1 3.2 4.8 0.13 0.13 0.13 85 1011.0
20260509210004 13 1 4.8 4.8 0.05 0.05 0.05 83 1010.9
20260509205503 13 1 3.2 4.8 0.00 0.00 0.00 82 1011.3
20260509205003 13 1 3.2 3.2 0.00 0.00 0.00 82 1011.0
20260509204504 13 1 3.2 6.4 0.00 0.00 0.00 82 1010.6
20260509204003 13 1 3.2 6.4 0.00 0.00 0.00 81 1010.8
20260509203503 13 1 4.8 8.0 0.00 0.00 0.00 81 1010.8
20260509203004 13 1 6.4 8.0 0.00 0.00 0.00 81 1010.9
20260509202003 13 2 4.8 11.3 0.00 0.00 0.00 83 1010.7
20260509201504 13 2 6.4 11.3 0.00 0.00 0.00 83 1010.7
20260509200503 13 2 8.0 17.7 0.00 0.00 0.00 82 1010.8
20260509200003 13 1 9.7 17.7 0.00 0.00 0.00 81 1011.0
20260509195504 13 2 9.7 17.7 0.00 0.00 0.00 80 1010.9
20260509195003 13 1 8.0 17.7 0.00 0.00 0.00 81 1010.8
20260509194503 13 2 6.4 17.7 0.00 0.00 0.00 82 1010.9
20260509194003 13 1 6.4 11.3 0.00 0.00 0.00 82 1011.0
20260509193504 13 2 6.4 11.3 0.00 0.00 0.00 83 1011.2
20260509193003 13 2 4.8 8.0 0.00 0.00 0.00 83 1011.4
20260509192003 13 2 6.4 6.4 0.00 0.00 0.00 83 1011.7
20260509191504 13 1 8.0 9.7 0.00 0.00 0.00 81 1011.9
20260509191004 13 2 6.4 9.7 0.00 0.00 0.00 81 1011.7